Torna al catalogo

STARLINK-33640

AttivoComunicazioniVLEO
NORAD 63378·PAYLOAD·🇺🇸 United States

Lanciato Mar 26, 2025 da Vandenberg Space Force Base

Loading…

Prossimi Passaggi (prossime 24 ore)

TLE

AggiornatoSource: CelesTrak SupGP

Epoca: Sep 15, 2026, 02:06 UTC

1 63378C 25063R   26258.08798611 -.00026482  00000+0 -78181-3 0  2585
2 63378  53.1575 250.9931 0001391  96.5261 188.9584 15.34427656    14

Traccia STARLINK-33640 in tempo reale con AllMySat

Download on the App Store